Time,TemperatureF,DewpointF,PressureIn,WindDirection,WindDirectionDegrees,WindSpeedMPH,WindSpeedGustMPH,Humidity,HourlyPrecipIn,Conditions,Clouds,dailyrainin,SoftwareType,DateUTC
2013-02-08 00:01:00,71.0,66.0,30.12,ENE,57,7.0,11.0,85,0.00,,,0.00,,2013-02-08 10:01:00,
2013-02-08 00:11:00,71.0,66.0,30.12,ENE,57,7.0,11.0,85,0.00,,,0.00,,2013-02-08 10:11:00,
2013-02-08 00:22:00,71.0,66.0,30.11,East,80,1.0,13.0,85,0.00,,,0.00,,2013-02-08 10:22:00,
2013-02-08 00:31:00,71.0,66.0,30.10,ENE,59,4.0,16.0,85,0.00,,,0.00,,2013-02-08 10:31:00,
2013-02-08 00:41:00,71.0,66.0,30.10,ENE,59,4.0,16.0,85,0.00,,,0.00,,2013-02-08 10:41:00,
2013-02-08 00:51:00,71.0,67.0,30.11,NE,52,6.0,18.0,86,0.00,,,0.00,,2013-02-08 10:51:00,
2013-02-08 01:01:00,71.0,67.0,30.10,East,79,7.0,13.0,86,0.00,,,0.00,,2013-02-08 11:01:00,
2013-02-08 01:11:00,71.0,67.0,30.10,East,79,7.0,13.0,86,0.00,,,0.00,,2013-02-08 11:11:00,
2013-02-08 01:21:00,71.0,67.0,30.10,East,83,5.0,15.0,86,0.00,,,0.00,,2013-02-08 11:21:00,
2013-02-08 01:32:00,70.0,66.0,30.09,East,98,8.0,19.0,86,0.00,,,0.00,,2013-02-08 11:32:00,
2013-02-08 01:41:00,70.0,66.0,30.09,East,98,8.0,19.0,86,0.00,,,0.00,,2013-02-08 11:41:00,
2013-02-08 01:52:00,70.0,66.0,30.09,ENE,63,2.0,14.0,86,0.00,,,0.00,,2013-02-08 11:52:00,
2013-02-08 02:01:00,70.0,66.0,30.09,ENE,74,7.0,17.0,86,0.00,,,0.00,,2013-02-08 12:01:00,
2013-02-08 02:11:00,70.0,66.0,30.09,ENE,74,7.0,17.0,86,0.00,,,0.00,,2013-02-08 12:11:00,
2013-02-08 02:21:00,70.0,65.0,30.08,ENE,78,8.0,13.0,85,0.00,,,0.00,,2013-02-08 12:21:00,
2013-02-08 02:32:00,70.0,65.0,30.08,ENE,76,2.0,12.0,85,0.00,,,0.00,,2013-02-08 12:32:00,
2013-02-08 02:41:00,70.0,65.0,30.08,ENE,76,2.0,12.0,85,0.00,,,0.00,,2013-02-08 12:41:00,
2013-02-08 02:52:00,70.0,66.0,30.07,East,92,10.0,15.0,86,0.00,,,0.00,,2013-02-08 12:52:00,
2013-02-08 03:01:00,70.0,66.0,30.07,ENE,65,10.0,17.0,86,0.00,,,0.00,,2013-02-08 13:01:00,
2013-02-08 03:11:00,70.0,66.0,30.07,ENE,65,10.0,17.0,86,0.00,,,0.00,,2013-02-08 13:11:00,
2013-02-08 03:21:00,70.0,66.0,30.06,NNE,33,3.0,13.0,86,0.00,,,0.00,,2013-02-08 13:21:00,
2013-02-08 03:31:00,70.0,66.0,30.06,NE,53,6.0,8.0,86,0.00,,,0.00,,2013-02-08 13:31:00,
2013-02-08 03:42:00,70.0,66.0,30.06,NE,53,6.0,8.0,86,0.00,,,0.00,,2013-02-08 13:42:00,
2013-02-08 03:52:00,70.0,66.0,30.06,NNE,33,6.0,14.0,86,0.00,,,0.00,,2013-02-08 13:52:00,
2013-02-08 04:01:00,70.0,66.0,30.06,NE,42,6.0,13.0,86,0.00,,,0.00,,2013-02-08 14:01:00,
2013-02-08 04:11:00,70.0,66.0,30.06,NE,42,6.0,13.0,86,0.00,,,0.00,,2013-02-08 14:11:00,
2013-02-08 04:21:00,70.0,66.0,30.06,NE,53,7.0,11.0,86,0.00,,,0.00,,2013-02-08 14:21:00,
2013-02-08 04:32:00,70.0,66.0,30.06,NE,39,2.0,12.0,86,0.00,,,0.00,,2013-02-08 14:32:00,
2013-02-08 04:41:00,70.0,66.0,30.06,NE,39,2.0,12.0,86,0.00,,,0.00,,2013-02-08 14:41:00,
2013-02-08 04:52:00,70.0,66.0,30.06,ENE,64,2.0,12.0,86,0.00,,,0.00,,2013-02-08 14:52:00,
2013-02-08 05:01:00,70.0,66.0,30.06,NE,45,2.0,14.0,86,0.00,,,0.00,,2013-02-08 15:01:00,
2013-02-08 05:11:00,70.0,66.0,30.06,NE,45,2.0,14.0,86,0.00,,,0.00,,2013-02-08 15:11:00,
2013-02-08 05:21:00,70.0,66.0,30.06,ENE,62,11.0,16.0,86,0.00,,,0.00,,2013-02-08 15:21:00,
2013-02-08 05:31:00,70.0,66.0,30.07,East,81,11.0,13.0,86,0.00,,,0.00,,2013-02-08 15:31:00,
2013-02-08 05:41:00,70.0,66.0,30.07,East,81,11.0,13.0,86,0.00,,,0.00,,2013-02-08 15:41:00,
2013-02-08 05:52:00,70.0,66.0,30.07,NE,50,7.0,16.0,86,0.00,,,0.00,,2013-02-08 15:52:00,
2013-02-08 06:01:00,70.0,66.0,30.07,NNE,22,8.0,12.0,86,0.00,,,0.00,,2013-02-08 16:01:00,
2013-02-08 06:11:00,70.0,66.0,30.07,NNE,22,8.0,12.0,86,0.00,,,0.00,,2013-02-08 16:11:00,
2013-02-08 06:21:00,70.0,66.0,30.08,East,86,11.0,15.0,86,0.00,,,0.00,,2013-02-08 16:21:00,
2013-02-08 06:32:00,70.0,66.0,30.08,NE,49,6.0,15.0,86,0.00,,,0.00,,2013-02-08 16:32:00,
2013-02-08 06:41:00,70.0,66.0,30.08,NE,49,6.0,15.0,86,0.00,,,0.00,,2013-02-08 16:41:00,
2013-02-08 06:52:00,70.0,66.0,30.09,ENE,59,4.0,12.0,86,0.00,,,0.00,,2013-02-08 16:52:00,
2013-02-08 07:01:00,69.0,65.0,30.09,ENE,65,7.0,13.0,86,0.00,,,0.00,,2013-02-08 17:01:00,
2013-02-08 07:11:00,69.0,65.0,30.09,ENE,65,7.0,13.0,86,0.00,,,0.00,,2013-02-08 17:11:00,
2013-02-08 07:21:00,69.0,64.0,30.09,NE,40,4.0,16.0,85,0.00,,,0.00,,2013-02-08 17:21:00,
2013-02-08 07:31:00,70.0,66.0,30.09,East,84,5.0,10.0,86,0.00,,,0.00,,2013-02-08 17:31:00,
2013-02-08 07:41:00,70.0,66.0,30.09,East,84,5.0,10.0,86,0.00,,,0.00,,2013-02-08 17:41:00,
2013-02-08 07:52:00,70.0,65.0,30.10,NE,36,7.0,15.0,85,0.00,,,0.00,,2013-02-08 17:52:00,
2013-02-08 08:01:00,70.0,66.0,30.10,NNE,29,4.0,15.0,86,0.00,,,0.00,,2013-02-08 18:01:00,
2013-02-08 08:11:00,70.0,66.0,30.10,NNE,29,4.0,15.0,86,0.00,,,0.00,,2013-02-08 18:11:00,
2013-02-08 08:23:00,70.0,65.0,30.10,ENE,57,4.0,14.0,85,0.00,,,0.00,,2013-02-08 18:23:00,
2013-02-08 08:32:00,70.0,65.0,30.11,NE,50,3.0,12.0,85,0.00,,,0.00,,2013-02-08 18:32:00,
2013-02-08 08:41:00,70.0,65.0,30.11,NE,50,3.0,12.0,85,0.00,,,0.00,,2013-02-08 18:41:00,
2013-02-08 08:52:00,71.0,66.0,30.11,ENE,59,9.0,15.0,85,0.00,,,0.00,,2013-02-08 18:52:00,
2013-02-08 09:01:00,71.0,66.0,30.11,NE,46,6.0,14.0,84,0.00,,,0.00,,2013-02-08 19:01:00,
2013-02-08 09:11:00,71.0,66.0,30.11,NE,46,6.0,14.0,84,0.00,,,0.00,,2013-02-08 19:11:00,
2013-02-08 09:21:00,72.0,66.0,30.11,ENE,71,9.0,11.0,82,0.00,,,0.00,,2013-02-08 19:21:00,
2013-02-08 09:32:00,72.0,66.0,30.11,NE,56,2.0,11.0,82,0.00,,,0.00,,2013-02-08 19:32:00,
2013-02-08 09:41:00,72.0,66.0,30.11,NE,56,2.0,11.0,82,0.00,,,0.00,,2013-02-08 19:41:00,
2013-02-08 09:52:00,73.0,66.0,30.12,ENE,74,4.0,13.0,80,0.00,,,0.00,,2013-02-08 19:52:00,
2013-02-08 10:01:00,74.0,67.0,30.12,East,96,3.0,13.0,79,0.00,,,0.00,,2013-02-08 20:01:00,
2013-02-08 10:11:00,74.0,67.0,30.12,East,96,3.0,13.0,79,0.00,,,0.00,,2013-02-08 20:11:00,
2013-02-08 10:21:00,74.0,66.0,30.12,ENE,67,0.0,13.0,77,0.00,,,0.00,,2013-02-08 20:21:00,
2013-02-08 10:31:00,75.0,67.0,30.12,NE,44,7.0,12.0,77,0.00,,,0.00,,2013-02-08 20:31:00,
2013-02-08 10:41:00,75.0,67.0,30.12,NE,44,7.0,12.0,77,0.00,,,0.00,,2013-02-08 20:41:00,
2013-02-08 10:52:00,75.0,67.0,30.12,North,10,8.0,13.0,76,0.00,,,0.00,,2013-02-08 20:52:00,
2013-02-08 11:01:00,76.0,67.0,30.11,East,82,11.0,17.0,75,0.00,,,0.00,,2013-02-08 21:01:00,
2013-02-08 11:11:00,76.0,67.0,30.11,East,82,11.0,17.0,75,0.00,,,0.00,,2013-02-08 21:11:00,
2013-02-08 11:21:00,76.0,67.0,30.11,ENE,72,7.0,16.0,75,0.00,,,0.00,,2013-02-08 21:21:00,
2013-02-08 11:32:00,77.0,68.0,30.11,ENE,57,11.0,12.0,74,0.00,,,0.00,,2013-02-08 21:32:00,
2013-02-08 11:41:00,77.0,68.0,30.11,ENE,57,11.0,12.0,74,0.00,,,0.00,,2013-02-08 21:41:00,
2013-02-08 11:52:00,77.0,68.0,30.11,ENE,58,4.0,13.0,73,0.00,,,0.00,,2013-02-08 21:52:00,
2013-02-08 12:01:00,78.0,68.0,30.11,ENE,71,9.0,13.0,72,0.00,,,0.00,,2013-02-08 22:01:00,
2013-02-08 12:11:00,78.0,68.0,30.11,ENE,71,9.0,13.0,72,0.00,,,0.00,,2013-02-08 22:11:00,
2013-02-08 12:21:00,77.0,67.0,30.10,NE,38,7.0,15.0,72,0.00,,,0.00,,2013-02-08 22:21:00,
2013-02-08 12:31:00,78.0,68.0,30.10,ENE,67,10.0,13.0,71,0.00,,,0.00,,2013-02-08 22:31:00,
2013-02-08 12:41:00,78.0,68.0,30.10,ENE,67,10.0,13.0,71,0.00,,,0.00,,2013-02-08 22:41:00,
2013-02-08 12:52:00,77.0,68.0,30.09,NE,36,3.0,14.0,74,0.00,,,0.00,,2013-02-08 22:52:00,
2013-02-08 13:01:00,78.0,68.0,30.08,ENE,78,3.0,9.0,71,0.00,,,0.00,,2013-02-08 23:01:00,
2013-02-08 13:11:00,78.0,68.0,30.08,ENE,78,3.0,9.0,71,0.00,,,0.00,,2013-02-08 23:11:00,
2013-02-08 13:21:00,79.0,68.0,30.07,ENE,71,9.0,14.0,69,0.00,,,0.00,,2013-02-08 23:21:00,
2013-02-08 13:31:00,79.0,68.0,30.06,ENE,72,7.0,14.0,69,0.00,,,0.00,,2013-02-08 23:31:00,
2013-02-08 13:41:00,79.0,68.0,30.06,ENE,72,7.0,14.0,69,0.00,,,0.00,,2013-02-08 23:41:00,
2013-02-08 13:52:00,78.0,68.0,30.06,NE,45,5.0,12.0,71,0.00,,,0.00,,2013-02-08 23:52:00,
2013-02-08 14:01:00,80.0,69.0,30.06,ENE,58,7.0,12.0,69,0.00,,,0.00,,2013-02-09 00:01:00,
2013-02-08 14:11:00,80.0,69.0,30.06,ENE,58,7.0,12.0,69,0.00,,,0.00,,2013-02-09 00:11:00,
2013-02-08 14:21:00,79.0,68.0,30.05,NE,35,5.0,13.0,69,0.00,,,0.00,,2013-02-09 00:21:00,
2013-02-08 14:31:00,80.0,69.0,30.05,ENE,71,2.0,11.0,70,0.00,,,0.00,,2013-02-09 00:31:00,
2013-02-08 14:41:00,80.0,69.0,30.05,ENE,71,2.0,11.0,70,0.00,,,0.00,,2013-02-09 00:41:00,
2013-02-08 14:52:00,79.0,68.0,30.04,ENE,63,8.0,9.0,69,0.00,,,0.00,,2013-02-09 00:52:00,
2013-02-08 15:01:00,77.0,67.0,30.04,NE,46,6.0,10.0,72,0.00,,,0.00,,2013-02-09 01:01:00,
2013-02-08 15:11:00,77.0,67.0,30.04,NE,46,6.0,10.0,72,0.00,,,0.00,,2013-02-09 01:11:00,
2013-02-08 15:21:00,80.0,68.0,30.04,East,85,2.0,12.0,68,0.00,,,0.00,,2013-02-09 01:21:00,
2013-02-08 15:31:00,78.0,68.0,30.04,East,80,5.0,9.0,72,0.00,,,0.00,,2013-02-09 01:31:00,
2013-02-08 15:41:00,78.0,68.0,30.04,East,80,5.0,9.0,72,0.00,,,0.00,,2013-02-09 01:41:00,
2013-02-08 15:52:00,78.0,68.0,30.04,East,90,0.0,11.0,71,0.00,,,0.00,,2013-02-09 01:52:00,
2013-02-08 16:01:00,78.0,68.0,30.03,East,97,6.0,10.0,71,0.00,,,0.00,,2013-02-09 02:01:00,
2013-02-08 16:11:00,77.0,67.0,30.04,East,88,0.0,9.0,72,0.00,,,0.00,,2013-02-09 02:11:00,
2013-02-08 16:21:00,77.0,67.0,30.04,East,88,0.0,9.0,72,0.00,,,0.00,,2013-02-09 02:21:00,
2013-02-08 16:31:00,77.0,68.0,30.04,ENE,77,0.0,10.0,74,0.00,,,0.00,,2013-02-09 02:31:00,
2013-02-08 16:41:00,77.0,68.0,30.04,ENE,77,0.0,10.0,74,0.00,,,0.00,,2013-02-09 02:41:00,
2013-02-08 16:52:00,76.0,67.0,30.04,ENE,63,2.0,8.0,74,0.00,,,0.00,,2013-02-09 02:52:00,
2013-02-08 17:01:00,77.0,68.0,30.05,East,85,1.0,10.0,73,0.00,,,0.00,,2013-02-09 03:01:00,
2013-02-08 17:11:00,77.0,68.0,30.05,East,85,1.0,10.0,73,0.00,,,0.00,,2013-02-09 03:11:00,
2013-02-08 17:21:00,76.0,67.0,30.06,ENE,74,4.0,11.0,74,0.00,,,0.00,,2013-02-09 03:21:00,
2013-02-08 17:31:00,77.0,68.0,30.06,ENE,78,2.0,10.0,73,0.00,,,0.00,,2013-02-09 03:31:00,
2013-02-08 17:41:00,77.0,68.0,30.06,ENE,78,2.0,10.0,73,0.00,,,0.00,,2013-02-09 03:41:00,
2013-02-08 17:52:00,76.0,67.0,30.05,ENE,77,5.0,8.0,74,0.00,,,0.00,,2013-02-09 03:52:00,
2013-02-08 18:01:00,75.0,67.0,30.06,NE,52,1.0,9.0,75,0.00,,,0.00,,2013-02-09 04:01:00,
2013-02-08 18:11:00,74.0,66.0,30.06,NE,38,5.0,9.0,77,0.00,,,0.00,,2013-02-09 04:11:00,
2013-02-08 18:22:00,74.0,66.0,30.06,NE,38,5.0,9.0,77,0.00,,,0.00,,2013-02-09 04:22:00,
2013-02-08 18:31:00,74.0,66.0,30.06,ENE,59,1.0,7.0,77,0.00,,,0.00,,2013-02-09 04:31:00,
2013-02-08 18:41:00,74.0,66.0,30.06,ENE,59,1.0,7.0,77,0.00,,,0.00,,2013-02-09 04:41:00,
2013-02-08 18:52:00,74.0,66.0,30.06,NE,42,5.0,10.0,77,0.00,,,0.00,,2013-02-09 04:52:00,
2013-02-08 19:01:00,74.0,66.0,30.07,NE,38,5.0,8.0,77,0.00,,,0.00,,2013-02-09 05:01:00,
2013-02-08 19:11:00,74.0,66.0,30.07,NE,38,5.0,8.0,77,0.00,,,0.00,,2013-02-09 05:11:00,
2013-02-08 19:22:00,73.0,66.0,30.07,NNE,28,6.0,9.0,78,0.00,,,0.00,,2013-02-09 05:22:00,
2013-02-08 19:31:00,73.0,66.0,30.08,NE,34,1.0,10.0,78,0.00,,,0.00,,2013-02-09 05:31:00,
2013-02-08 19:41:00,73.0,66.0,30.08,NE,34,1.0,10.0,78,0.00,,,0.00,,2013-02-09 05:41:00,
2013-02-08 19:52:00,73.0,66.0,30.09,ENE,64,8.0,10.0,78,0.00,,,0.00,,2013-02-09 05:52:00,
2013-02-08 20:01:00,72.0,65.0,30.08,ENE,73,4.0,9.0,79,0.00,,,0.00,,2013-02-09 06:01:00,
2013-02-08 20:11:00,72.0,65.0,30.08,ENE,73,4.0,9.0,79,0.00,,,0.00,,2013-02-09 06:11:00,
2013-02-08 20:21:00,72.0,65.0,30.08,NE,51,2.0,10.0,79,0.00,,,0.00,,2013-02-09 06:21:00,
2013-02-08 20:31:00,72.0,65.0,30.08,NE,36,4.0,9.0,79,0.00,,,0.00,,2013-02-09 06:31:00,
2013-02-08 20:41:00,72.0,65.0,30.08,NE,36,4.0,9.0,79,0.00,,,0.00,,2013-02-09 06:41:00,
2013-02-08 20:52:00,72.0,65.0,30.09,NE,34,3.0,11.0,80,0.00,,,0.00,,2013-02-09 06:52:00,
2013-02-08 21:01:00,72.0,65.0,30.09,ENE,59,9.0,13.0,80,0.00,,,0.00,,2013-02-09 07:01:00,
2013-02-08 21:11:00,72.0,65.0,30.09,ENE,59,9.0,13.0,80,0.00,,,0.00,,2013-02-09 07:11:00,
2013-02-08 21:21:00,71.0,65.0,30.08,ENE,74,0.0,8.0,81,0.00,,,0.00,,2013-02-09 07:21:00,
2013-02-08 21:31:00,71.0,65.0,30.09,NE,48,6.0,10.0,81,0.00,,,0.00,,2013-02-09 07:31:00,
2013-02-08 21:41:00,71.0,65.0,30.09,NE,48,6.0,10.0,81,0.00,,,0.00,,2013-02-09 07:41:00,
2013-02-08 21:51:00,71.0,65.0,30.09,ENE,68,3.0,10.0,82,0.00,,,0.00,,2013-02-09 07:51:00,
2013-02-08 22:01:00,71.0,65.0,30.10,NE,48,4.0,8.0,82,0.00,,,0.00,,2013-02-09 08:01:00,
2013-02-08 22:11:00,71.0,65.0,30.10,NE,48,4.0,8.0,82,0.00,,,0.00,,2013-02-09 08:11:00,
2013-02-08 22:21:00,71.0,65.0,30.09,NE,40,2.0,7.0,82,0.00,,,0.00,,2013-02-09 08:21:00,
2013-02-08 22:31:00,71.0,66.0,30.09,ENE,67,0.0,4.0,83,0.00,,,0.00,,2013-02-09 08:31:00,
2013-02-08 22:41:00,71.0,66.0,30.09,ENE,67,0.0,4.0,83,0.00,,,0.00,,2013-02-09 08:41:00,
2013-02-08 22:52:00,70.0,65.0,30.09,ENE,73,9.0,9.0,83,0.00,,,0.00,,2013-02-09 08:52:00,
2013-02-08 23:02:00,70.0,65.0,30.09,ENE,59,3.0,9.0,83,0.00,,,0.00,,2013-02-09 09:02:00,
2013-02-08 23:11:00,70.0,65.0,30.09,ENE,59,3.0,9.0,83,0.00,,,0.00,,2013-02-09 09:11:00,
2013-02-08 23:21:00,70.0,65.0,30.09,ENE,59,4.0,8.0,84,0.00,,,0.00,,2013-02-09 09:21:00,
2013-02-08 23:31:00,70.0,65.0,30.09,ENE,72,1.0,7.0,84,0.00,,,0.00,,2013-02-09 09:31:00,
2013-02-08 23:41:00,70.0,65.0,30.09,ENE,72,1.0,7.0,84,0.00,,,0.00,,2013-02-09 09:41:00,
2013-02-08 23:52:00,70.0,65.0,30.09,NE,56,2.0,11.0,85,0.00,,,0.00,,2013-02-09 09:52:00,